Weather in Kochkorka

Kyrgyzstan     42°12′57″N   75°45′19″E
temp.,
°C
wind,
m/s
gust,
m/s
humid.,
%
clouds,
%
prec.,
mm/h
press.,
hPa
HPBL,
m
12 april, mon
mon1200:00+5se11450 0.0 101925
03:00+3ese11512 0.0 102012
06:00+2se00553 0.0 102010
09:00+5wsw11371 0.0 1021353
12:00+10wnw01240 0.0 1019867
15:00+13nne22180 0.0 10161765
18:00+13ene53213 0.0 10161842
21:00+8ene354021 0.0 1020288
13 april, tue
tue1300:00+7e114968 0.0 102030
03:00+5ssw114884 0.1 102014
06:00+4sw225074 0.1 102016
09:00+7wsw1138100 0.0 1020353
12:00+11w1229100 0.0 10191046
15:00+13nne1123100 0.0 10162176
18:00+12nne6534100 0.0 10171090
21:00+9n335699 0.1 1021256
14 april, wed
wed1400:00+7ene226762 0.3 102182
03:00+5ene22728 0.0 102032
06:00+4ene116837 0.0 102111
09:00+7e014561 0.0 1021455
12:00+11ne22333 0.0 10181323
15:00+13ne53273 0.0 10161664
18:00+12ne552756 0.0 1016786
21:00+9ene3433100 0.0 1018254
15 april, thu
thu1500:00+8ne114095 0.1 101743
03:00+6n004399 0.0 101611
06:00+5sw224840 0.0 101714
09:00+9wsw23390 0.0 1017467
12:00+14w2327100 0.0 10131410
15:00+16wsw4615100 0.0 10103272
18:00+16w241584 0.0 10092831
21:00+11ne343792 0.0 1012172
16 april, fri
fri1600:00+9ene234475 0.0 101254
03:00+7ne224491 0.0 101228
06:00+6ene224299 0.0 101217
09:00+9nne1246100 0.0 1013466
12:00+10ne2253100 0.1 1013938
15:00+11nne534896 0.0 1012927
18:00+9nne3354100 0.1 1014638
21:00+7nne2267100 0.2 1016354